Regional Weather Roundup
Issued by NWS Binghamton, NY

Home | Current Version | Previous Version | Text Only | Print | Product List | Glossary On
Versions: 1 2 3 4 5 6 7 8 9 10 11 12 13 14 15 16 17 18 19 20 21 22 23 24 25 26 27 28 29 30 31 32 33 34 35 36 37 38 39 40 41 42 43 44 45 46 47 48 49 50
873
ASUS41 KBGM 111110
RWRBGM

REGIONAL WEATHER ROUNDUP
NATIONAL WEATHER SERVICE BINGHAMTON NY
600 AM EST THU FEB 11 2016

Note: "fair" indicates few or no clouds below 12,000 feet with no
significant weather and/or obstructions to visibility.

* = Station(s) that does not report precipitation, such as rain,
snow, etc, also no thunder or fog.

!NYZ009-015>018-022>025-036-037-044>046-055>057-062-111200
...CENTRAL NEW YORK...

CITY           SKY/WX    TMP DP  RH WIND       PRES   REMARKS
BINGHAMTON     LGT SNOW  10   3  73 W10       29.72R WCI  -4
CORTLAND       FAIR      12   3  67 W3        29.76R
DANSVILLE      MOCLDY    13   3  64 NW9G18    29.86R WCI   1
ELMIRA         PTCLDY    13   5  70 SW8       29.81R WCI   2
ITHACA         PTCLDY    12   3  67 W15       29.78R WCI  -4
HORNELL        FLURRIES  12   3  67 NW12      29.84R WCI  -2
MONTICELLO     CLEAR     12   1  62 W12       29.73R WCI  -2
NORWICH        CLEAR     12   0  57 S7        29.76R WCI   2
PENN YAN       CLEAR     14   1  56 W14G22    29.80R WCI  -1
ROME           LGT SNOW  14  10  84 W14       29.78S FOG     WCI  -1
SYRACUSE       FLURRIES  14   7  73 W16G25    29.78S WCI  -2
$$

!PAZ038>040-043-044-047-048-072-111200
...NORTHEAST PENNSYLVANIA...

CITY           SKY/WX    TMP DP  RH WIND       PRES   REMARKS
HAZLETON       CLOUDY    12   5  73 W8        29.80S WCI   1
SCRANTON       CLEAR     12   1  61 SW7       29.82R WCI   1
$$
&&
KEY
WCI = WIND CHILL INDEX
VSB = VISIBILITY
HX  = HEAT INDEX
$$




USA.gov is the U.S. government's official web portal to all federal, state and local government web resources and services.